Regional Weather Roundup
Issued by NWS

Home | Current Version | Previous Version | Text Only | Print | Product List | Glossary On
Versions: 1 2 3 4 5 6 7 8 9 10 11 12 13 14 15 16 17 18 19 20 21 22 23 24 25 26 27
000
ASUS45 KBOU 210907
RWRCO

WEATHER ROUNDUP FOR COLORADO
NATIONAL WEATHER SERVICE DENVER/BOULDER CO
300 AM MDT MON AUG 21 2017

NOTE: "FAIR" INDICATES FEW OR NO CLOUDS BELOW 12000 FEET WITH NO
SIGNIFICANT WEATHER AND/OR OBSTRUCTIONS TO VISIBILITY.

COZ001>005-013-030-031-211000-
...NORTHWEST COLORADO...

CITY           SKY/WX    TMP DP  RH WIND       PRES   REMARKS
CRAIG          FAIR      50  40  68 CALM      30.22S
HAYDEN         FAIR      57  39  51 E10       30.26R
MEEKER         FAIR      58  41  53 CALM      30.23S
RABBIT EARS PA FAIR      54  34  47 SW6       30.52F
STEAMBOAT SPGS FAIR      49  40  71 CALM      30.27S
WALDEN         FAIR      39  32  75 CALM      30.37R
$$

COZ006>008-011-211000-
...WEST CENTRAL VALLEYS...

CITY           SKY/WX    TMP DP  RH WIND       PRES   REMARKS
GRAND JUNCTION FAIR      70  38  31 SE10      30.09R
MONTROSE       FAIR      68  41  37 E6        30.19S
EAGLE          FAIR      56  37  49 E3        30.28R
RIFLE          FAIR      60  37  42 E3        30.17R
DELTA          FAIR      66  38  35 SE3       30.15R
NUCLA          FAIR      63  39  42 E7        30.25S
$$

COZ017>023-064>068-211000-
...SOUTHWEST COLORADO...

CITY           SKY/WX    TMP DP  RH WIND       PRES   REMARKS
DURANGO        MOCLDY    57  44  62 E5        30.28F
CORTEZ         FAIR      61  51  70 E5        30.23S
PAGOSA SPRINGS FAIR      53  41  63 CALM      30.35F
TELLURIDE      CLOUDY    55  39  55 CALM      30.45S
WOLF CREEK PAS FAIR      45  32  61 CALM      30.67S
$$

COZ009-010-012-014-032>034-037-058>063-211000-
...CENTRAL COLORADO...

CITY           SKY/WX    TMP DP  RH WIND       PRES   REMARKS
ASPEN          FAIR      56  38  50 S6        30.32S
BUENA VISTA    FAIR      52  40  65 NW3       30.37F
COPPER MTN     FAIR      54  32  43 S13       30.64S
BERTHOUD PASS  FAIR      43  37  81 W14G25    30.66S
COTTONWOOD PAS FAIR      55  37  50 NW6       30.49F
GUNNISON       FAIR      52  39  61 NE6       30.35S
KREMMLING      FAIR      52  41  66 CALM      30.33R
LEADVILLE      FAIR      42  35  76 NE7       30.50S
MONARCH PASS   FAIR      45  34  65 S16G22    30.72F
SALIDA         MOCLDY    58  45  60 W7        30.40F
SUNLIGHT       FAIR      52  30  43 SE3       30.57S
WILKERSON PASS FAIR      46  36  66 W9G16     30.59F
$$

COZ069>075-211000-
...SAN LUIS VALLEY/SANGRE DE CRISTO MOUNTAINS...

CITY           SKY/WX    TMP DP  RH WIND       PRES   REMARKS
ALAMOSA        FAIR      54  46  74 S9        30.32S
DEL NORTE      MOCLDY    58  42  56 W9        30.35F
LA VETA PASS   NOT AVBL
SAGUACHE       FAIR      55  41  58 N9        30.35F
$$

COZ035-036-038>040-211000-
...NORTHERN COLORADO FRONT RANGE...

CITY           SKY/WX    TMP DP  RH WIND       PRES   REMARKS
DENVER INTL AP MOCLDY    69  44  40 SW12      30.10F
DMNS CITY PARK   N/A     67  44  42 SE9       30.11S
AURORA         MOCLDY    67  44  44 SW7       30.13F
FRONT RANGE AP FAIR      70  43  37 SW13G20   30.12F
ERIE MUNI ARPT FAIR      60  45  58 CALM      30.14F
BOULDER MUN AP FAIR      70  37  30 SW7       30.09F
CENTENNIAL     FAIR      68  42  38 S5        30.15S
BROOMFIELD     NOT AVBL
FORT COLLINS   FAIR      63  52  67 NE7       30.09F
LONGMONT       FAIR      64  47  54 CALM      30.11R
$$

COZ041-046-047-076>085-087-088-211000-
...PIKES PEAK/PALMER DIVIDE AND SOUTHERN FOOTHILLS...

CITY           SKY/WX    TMP DP  RH WIND       PRES   REMARKS
COLO. SPRINGS  FAIR      65  44  46 N9        30.17F
A. F. ACADEMY  FAIR      65  40  41 NE8       30.19F
SCHRIEVER AFB  FAIR      66  39  37 NW13      30.17F
CHEYENNE MTN   FAIR      65  40  39 NW6       30.17F
ELLICOTT       NOT AVBL
FALCON         FAIR      64  38  38 W13       30.23S
FORT CARSON    FAIR      61  46  58 NW12      30.13F
LIMON          FAIR      54  48  80 NW5       30.11F
MONUMENT HILL  FAIR      55  43  62 W9        30.26F
CANON CITY     CLEAR     70  48  46 W12G17    30.12F
WALSENBURG     FAIR      72  41  33 W12       30.16F
TRINIDAD       FAIR      63  50  62 W8        30.17F
$$

COZ042>045-048>051-090-091-211000-
...NORTHEAST COLORADO...

CITY           SKY/WX    TMP DP  RH WIND       PRES   REMARKS
GREELEY ARPT   NOT AVBL
AKRON          FAIR      65  51  60 SW9       30.05F
BURLINGTON     FAIR      63  61  93 CALM      30.03S
WRAY           NOT AVBL
YUMA           NOT AVBL
STERLING       FAIR      63  63 100 N3        30.01F
HOLYOKE        FOG       63  61  94 CALM      30.01S VSB 1/4
FORT MORGAN    FAIR      61  50  69 W10       30.05F
$$

COZ086-089-092>099-211000-
...SOUTHEAST COLORADO...

CITY           SKY/WX    TMP DP  RH WIND       PRES   REMARKS
PUEBLO         FAIR      70  48  45 W9        30.07R
LA JUNTA       FAIR      68  51  54 SW9       30.04S
LAMAR          FAIR      71  57  61 S12       29.99S
SPRINGFIELD      N/A     68  58  70 SW13      30.10S
$$




USA.gov is the U.S. government's official web portal to all federal, state and local government web resources and services.